Location: Astronomy Club of Akron Observatory
(40.9700°N, 81.5606°W)
Time: 23:41:59
(UTC-04:00)

Cosmos 1441 Rocket - Visible Passes

Search period start: 28 April 2017 00:00
Search period end: 08 May 2017 00:00
Orbit: 498 x 544 km, 81.1° (Epoch: 27 April)

Date Brightness Start Highest point End Pass type
(mag) Time Alt. Az. Time Alt. Az. Time Alt. Az.
28 Apr 6.1 02:18:25 16° N 02:18:25 16° N 02:19:14 10° N visible
29 Apr 6.1 02:05:08 16° N 02:05:08 16° N 02:05:55 10° N visible
30 Apr 6.2 01:51:50 15° N 01:51:50 15° N 01:52:35 10° N visible
01 May 6.2 01:38:31 15° N 01:38:31 15° N 01:39:15 10° N visible
02 May 6.2 01:25:12 15° NNE 01:25:12 15° NNE 01:25:54 10° NNE visible
03 May 6.1 01:11:52 15° NNE 01:11:52 15° NNE 01:12:33 10° NNE visible
04 May 6.1 00:58:31 14° NNE 00:58:31 14° NNE 00:59:11 10° NNE visible
05 May 6.1 00:45:09 14° NNE 00:45:09 14° NNE 00:45:47 10° NNE visible
06 May 6.0 00:31:46 14° NNE 00:31:46 14° NNE 00:32:23 10° NNE visible
07 May 6.0 00:18:22 14° NNE 00:18:22 14° NNE 00:18:58 10° NNE visible
07 May 6.2 01:53:28 11° NW 01:53:28 11° NW 01:53:49 10° NW visible
